Find Tongxin Jishu Shiyan 16

NORAD ID: 63397 Int'l Des: 2025-064 Owner: ZLZB Country: CN operational
HEOCIRCULARGSO

リアルタイム位置

3D地球を読み込み中...

Tongxin Jishu Shiyan 16について

説明を読み込み中...

次回通過

Passes for default location (London). Set your location on the main map for personalized predictions.

高度履歴

Loading altitude history...

軌道要素

1 63397U 25064A 26105.77805406 -.00000098 00000-0 00000+0 0 9993
2 63397 0.9362 81.6566 0004713 274.3268 288.6412 1.00271092 3768
Epoch: Apr 15, 2026 • Age: 22 hours

現在のステータス

高度 35792.5 km
速度 3.07 km/s
衛星直下点 0.23°N, 160.53°E
打ち上げ日 Mar 29, 2025
運用期間 1 years
タイプ other

技術仕様

分類 Payload
質量 5000.00 kg
乾燥質量 2500.00 kg
総質量 5000.00 kg
長さ 5.00 m
直径 2.50 m
スパン 30.00 m
形状 Box + 2 Pan
製造者 SISE
バスタイプ FY-4
フェーズステータス In Orbit
所有者/国 ZLZB/CN

Most Searched